Find Starlink 35920

NORAD ID: 66623 Int'l Des: 2025-271 Owner: SPXS Country: US Constellation: starlink operational
LEOCIRCULAR

当前视图

正在加载3D地球...

关于 Starlink 35920

正在加载描述...

即将过境

Passes for default location (London). Set your location on the main map for personalized predictions.

高度历史

Loading altitude history...

两行轨道根数

1 66623U 25271G 26149.30608571 .00027225 00000-0 81382-3 0 9995
2 66623 53.1596 123.7652 0001053 100.5055 259.6066 15.34405616 29937
Epoch: May 29, 2026 • Age: 25 hours

当前状态

高度 467.8 km
速度 7.63 km/s
星下点 -17.65°S, 93.41°E
发射日期 Nov 23, 2025
运行时间 0.5 years
类型 internet

技术详情

分类 Payload
质量 575.00 kg
干质量 530.00 kg
总质量 575.00 kg
长度 0.30 m
直径 4.10 m
跨度 29.00 m
形状 Box + pan
制造商 SPXS
平台类型 Starlink V2MO
阶段状态 In Orbit
所有者/国家 SPXS/US

Most Searched